Location: Newark
(42.9858°N, 0.6717°E)
Time: 04:39:40
(UTC+00:00)

SR - All Passes

Search period start: 22 November 2019 00:00
Search period end: 02 December 2019 00:00
Orbit: 573 x 882 km, 66.7° (Epoch: 21 November)

Date Brightness Start Highest point End Pass type
(mag) Time Alt. Az. Time Alt. Az. Time Alt. Az.
22 Nov - 00:13:29 10° WNW 00:17:57 23° WSW 00:22:16 10° SSW night (unlit)
22 Nov - 13:01:22 10° S 13:06:03 34° ESE 13:11:06 10° NE daylight
22 Nov - 14:42:59 10° WSW 14:48:04 40° NW 14:53:30 10° NNE daylight
22 Nov - 16:30:14 10° NW 16:31:53 11° NNW 16:33:35 10° N daylight
22 Nov - 20:01:14 10° NNE 20:02:27 11° NNE 20:03:39 10° NE visible
22 Nov - 21:40:56 10° NNW 21:46:24 36° NE 21:51:42 10° ESE night (unlit)
22 Nov - 23:23:05 10° NW 23:28:38 43° WSW 23:33:55 10° S night (unlit)
23 Nov - 12:13:26 10° SE 12:16:50 17° ESE 12:20:22 10° ENE daylight
23 Nov - 13:52:53 10° SW 13:58:12 72° WNW 14:03:58 10° NNE daylight
23 Nov - 15:37:54 10° WNW 15:41:26 17° NW 15:45:05 10° N daylight
23 Nov - 20:51:38 10° N 20:56:17 23° NE 21:00:49 10° E visible
23 Nov - 22:33:09 10° NNW 22:39:07 79° WSW 22:44:47 10° SSE night (unlit)
24 Nov - 00:18:09 10° W 00:20:12 12° W 00:22:13 10° WSW night (unlit)
24 Nov - 13:03:22 10° SSW 13:08:34 62° ESE 13:14:13 10° NE daylight
24 Nov - 14:46:36 10° W 14:51:10 26° NW 14:55:58 10° NNE daylight
24 Nov - 20:02:37 10° N 20:05:57 15° NNE 20:09:15 10° ENE visible
24 Nov - 21:43:30 10° NNW 21:49:23 59° NE 21:55:01 10° SE night (unlit)
24 Nov - 23:26:29 10° NW 23:31:03 24° WSW 23:35:29 10° SSW night (unlit)
25 Nov - 12:14:30 10° S 12:19:09 32° ESE 12:24:08 10° NE daylight
25 Nov - 13:55:59 10° WSW 14:01:06 43° NW 14:06:37 10° NNE daylight
25 Nov - 15:42:56 10° NW 15:44:53 12° NNW 15:46:52 10° N daylight
25 Nov - 19:14:44 10° NNE 19:15:26 10° NNE 19:16:09 10° NNE visible
25 Nov - 20:54:02 10° NNW 20:59:27 35° NE 21:04:40 10° ESE visible
25 Nov - 22:36:07 10° NW 22:41:44 45° WSW 22:47:03 10° S night (unlit)
26 Nov - 11:26:42 10° SE 11:29:57 16° ESE 11:33:18 10° ENE daylight
26 Nov - 13:05:55 10° SW 13:11:16 76° WNW 13:17:04 10° NNE daylight
26 Nov - 14:50:46 10° WNW 14:54:26 17° NW 14:58:14 10° N daylight
26 Nov - 20:04:46 10° N 20:09:18 22° NE 20:13:44 10° E visible
26 Nov - 21:46:13 10° NNW 21:52:12 83° WSW 21:57:51 10° SSE night (unlit)
26 Nov - 23:30:55 10° WNW 23:33:20 13° W 23:35:42 10° SW night (unlit)
27 Nov - 12:16:26 10° SSW 12:21:39 58° ESE 12:27:17 10° NE daylight
27 Nov - 13:59:33 10° WSW 14:04:11 27° NW 14:09:06 10° NNE daylight
27 Nov - 19:15:47 10° N 19:18:58 15° NNE 19:22:06 10° ENE visible
27 Nov - 20:56:36 10° NNW 21:02:27 56° NE 21:08:02 10° SE visible
27 Nov - 22:39:28 10° NW 22:44:10 25° WSW 22:48:41 10° SSW night (unlit)
28 Nov - 11:27:39 10° SSE 11:32:15 30° ESE 11:37:09 10° NE daylight
28 Nov - 13:08:57 10° SW 13:14:09 45° NW 13:19:44 10° NNE daylight
28 Nov - 14:55:40 10° NW 14:57:52 12° NNW 15:00:07 10° N daylight
28 Nov - 20:07:09 10° NNW 20:12:29 33° NE 20:17:38 10° ESE visible
28 Nov - 21:49:11 10° NW 21:54:49 47° WSW 22:00:10 10° S night (unlit)
29 Nov - 10:40:00 10° SE 10:43:04 15° ESE 10:46:13 10° ENE daylight
29 Nov - 12:18:56 10° SW 12:24:19 80° WNW 12:30:10 10° NNE daylight
29 Nov - 14:03:38 10° W 14:07:27 18° NW 14:11:24 10° N daylight
29 Nov - 19:17:54 10° N 19:22:20 21° NE 19:26:39 10° E visible
29 Nov - 20:59:19 10° NNW 21:05:16 87° WSW 21:10:55 10° SSE visible
29 Nov - 22:43:44 10° WNW 22:46:27 14° WSW 22:49:06 10° SW night (unlit)
30 Nov - 11:29:31 10° S 11:34:43 55° ESE 11:40:21 10° NE daylight
30 Nov - 13:12:28 10° WSW 13:17:13 28° NW 13:22:13 10° NNE daylight
30 Nov - 18:28:57 10° N 18:31:58 14° NNE 18:34:56 10° ENE visible
30 Nov - 20:09:41 10° NNW 20:15:30 53° NE 20:21:02 10° SE visible
30 Nov - 21:52:29 10° NW 21:57:16 27° WSW 22:01:52 10° SSW night (unlit)
01 Dec - 10:40:49 10° SSE 10:45:21 29° ESE 10:50:11 10° NE daylight
01 Dec - 12:21:56 10° SW 12:27:12 47° NW 12:32:50 10° NNE daylight
01 Dec - 14:08:25 10° NW 14:10:52 13° NNW 14:13:21 10° N daylight
01 Dec - 19:20:15 10° NNW 19:25:31 32° NE 19:30:36 10° ESE visible
01 Dec - 21:02:14 10° NW 21:07:55 50° WSW 21:13:16 10° S visible
